DELTA 1 DEB, 42085

Orbit data source: Space-Track

DELTA 1 DEB, 42085 is space debris in SSO originally from a launch on Sun, 15 Dec 1968 UTC launched from the Air Force Western Test Range (AFWTR). Debris objects in space refer to the collection of defunct objects orbiting the Earth. Examples of debris include non-operational satellites, rocket bodies, and fragments generated from explosions, collisions, or faulty payload assembly.

Loading next visibility...
Identifier
42085, 1968-114M
Orbit
SSO
Country
Flag of USUS
Related business
Manufacturer
Aerojet
Mission
Spacecraft
Bus & Motor
Unknown
Mass
Unknown
Launch date (UTC)
1968-12-15 (57 years ago)
Launch vehicle
Unknown
Launch site
Air Force Western Test Range (AFWTR)
Object type
Payload
Rocket body
Debris
Shape & HBR
Unknown shape, 0.1 m
Radar Cross Section
Small (<0.1 m²)

Expand to show TLE details & history
Last TLE update: 6 days ago

TLE from 6 days ago
0 DELTA 1 DEB
1 42085U 68114M   26031.42968376  .00000528  00000-0  23034-2 0  9995
2 42085 100.9214  96.2942 0111990 290.7305  94.9157 12.84429160571596
Epoch: 2026-01-31T10:18Z
TLE epoch observation values (Epoch: 2026-01-31T10:18:44.676Z)
Latitude
26.43207°
Longitude
165.47753°
Altitude
1,335.052 km
Speed
7.188 km/s
True Right ascension
06h 03m 16s
True Declination
26° 18' 20"
Sunlit
Object was in full shadow at epoch
Visualization orbit readout
Latitude
Unknown
Longitude
Unknown
Altitude
Unknown
Speed
Unknown
Apparent Right ascension
Unknown
Apparent Declination
Unknown
Sunlit
N/A
Visualization observer readout
Local Sidereal Time
13:07:12
Azimuth
Unknown
Elevation
Unknown
Doppler factor
Unknown
Orbital elements
Apogee altitude
1,407.391 km
Perigee altitude
1,234.942 km
Semi-major axis
7,699.304 km
Eccentricity
0.0112
Inclination
100.9214°
RAAN
96.2942°
Arg. of periapsis
290.7305°
True anomaly
96.19265°
Mean anomaly
94.9157°
Eccentric anomaly
95.55434°
Mean motion
3.21267 °/min
Orbital period
112.06 mins
BSTAR
0.0023034
Loading maneuver chart data...
Computing Atmospheric mass density...
Loading historical data...
Loading historical data...
Loading historical data...
Loading historical data...
Loading historical data...
Loading historical data...
Loading historical data...

Documentation

Showing up to 5 results
|